Regional Weather Roundup
Issued by NWS Albany, NY

Home | Current Version | Previous Version | Text Only | Print | Product List | Glossary On
Versions: 1 2 3 4 5 6 7 8 9 10 11 12 13 14 15 16 17 18 19 20 21 22 23 24 25 26 27 28 29 30 31 32 33 34 35 36 37 38 39 40 41 42 43 44 45 46 47 48 49 50
779
ASUS41 KALY 261610
RWRALY

NEW YORK STATE HOURLY WEATHER ROUNDUP
NATIONAL WEATHER SERVICE ALBANY NY
1200 PM EDT SUN MAR 26 2017

NOTE: "FAIR" INDICATES FEW OR NO CLOUDS BELOW 12,000 FEET WITH NO
SIGNIFICANT WEATHER AND/OR NO OBSTRUCTIONS TO VISIBILITY.

NYZ032-033-038>043-046>054-057>066-NYZ062>081-082-084-261700-
EAST


CITY           SKY/WX    TMP DP  RH WIND       PRES   REMARKS
ALBANY         CLOUDY    34  23  64 E6        30.48F WCI  29
GLENS FALLS    CLOUDY    33  18  53 VRB3      30.48F
POUGHKEEPSIE   CLOUDY    36  29  75 E6        30.48F WCI  31
NEWBURGH       CLOUDY    37  32  81 E12       30.48F WCI  30
MONTGOMERY     CLOUDY    39  31  72 NE7       30.46F WCI  34
WHITE PLAINS   PTSUNNY   38  29  70 E15G21    30.47S WCI  29
ISLIP          CLOUDY    42  35  76 E10       30.48S
NEW YORK CITY  CLOUDY    40  32  73 NE16      30.48R WCI  31
CENTRAL PARK   CLOUDY    39  33  79 E6        30.50S WCI  35
$$

NYZ005>009-017-018-044>046-055-056-261700-
CENTRAL


CITY           SKY/WX    TMP DP  RH WIND       PRES   REMARKS
FULTON         CLOUDY    38  27  64 SE8G18    30.28F WCI  32
SYRACUSE       CLOUDY    37  28  70 E13       30.30F WCI  29
ROME           CLOUDY    35  27  72 SE14G21   30.39R WCI  26
ELMIRA         CLOUDY    41  35  79 SE5       30.30S
BINGHAMTON     CLOUDY    34  31  88 SE14      30.30R WCI  25
MONTICELLO     CLOUDY    30  28  93 E10       30.42S WCI  21
$$

NYZ026>034-041>043-087-261700-
NORTH


CITY           SKY/WX    TMP DP  RH WIND       PRES   REMARKS
WATERTOWN      LGT RAIN  37  31  78 E12       30.30F WCI  29
FORT DRUM      NOT AVBL
MASSENA        MOSUNNY   29  12  49 NE20      30.43F WCI  16
SARANAC LAKE   CLOUDY    32  20  61 NE8       30.32F WCI  25
PLATTSBURGH    SUNNY     29  15  56 E5        30.47F WCI  24
$$

NYZ001>004-010>016-019>021-085-261700-
WEST


CITY           SKY/WX    TMP DP  RH WIND       PRES   REMARKS
NIAGARA FALLS  CLOUDY    49  41  74 E12       30.12F
BUFFALO        CLOUDY    50  43  77 N7        30.12F
DUNKIRK        CLOUDY    58  48  69 CALM      30.08F
JAMESTOWN      MOSUNNY   54  43  66 S17       30.11F
WELLSVILLE     CLOUDY    43  40  89 S14G25    30.21S
ROCHESTER      CLOUDY    49  42  77 SE13      30.18F
PENN YAN       CLOUDY    43  37  79 SE9       30.24F
$$

             KEY
       WCI = WIND CHILL INDEX
       VSB = VISIBILITY
       HX  = HEAT INDEX
$$




USA.gov is the U.S. government's official web portal to all federal, state and local government web resources and services.